Time,TemperatureF,DewpointF,PressureIn,WindDirection,WindDirectionDegrees,WindSpeedMPH,WindSpeedGustMPH,Humidity,HourlyPrecipIn,Conditions,Clouds,dailyrainin,SoftwareType,DateUTC
2013-11-02 00:01:00,47.3,44.2,29.70,West,270,0.0,0.0,89,0.00,,,0.00,pywws,2013-11-02 04:01:00,
2013-11-02 00:02:00,47.3,44.2,29.70,West,270,0.0,0.0,89,0.00,,,0.00,pywws,2013-11-02 04:02:00,
2013-11-02 00:03:00,47.3,44.2,29.70,West,270,0.0,0.0,89,0.00,,,0.00,pywws,2013-11-02 04:03:00,
2013-11-02 00:05:00,47.3,44.2,29.69,West,270,0.0,0.0,89,0.00,,,0.00,pywws,2013-11-02 04:05:00,
2013-11-02 00:07:00,47.1,43.8,29.70,North,0,1.6,2.2,88,0.00,,,0.00,pywws,2013-11-02 04:07:00,
2013-11-02 00:13:00,47.1,43.8,29.70,West,270,0.0,0.0,88,0.00,,,0.00,pywws,2013-11-02 04:13:00,
2013-11-02 00:18:00,47.3,43.9,29.70,South,180,0.0,0.0,88,0.00,,,0.00,pywws,2013-11-02 04:18:00,
2013-11-02 00:24:00,47.3,43.9,29.69,West,270,0.0,0.0,88,0.00,,,0.00,pywws,2013-11-02 04:24:00,
2013-11-02 00:29:00,47.5,43.8,29.69,North,0,0.7,1.6,87,0.00,,,0.00,pywws,2013-11-02 04:29:00,
2013-11-02 00:35:00,47.1,43.5,29.69,North,0,0.0,0.7,87,0.00,,,0.00,pywws,2013-11-02 04:35:00,
2013-11-02 00:41:00,46.9,43.3,29.69,West,270,0.0,0.0,87,0.00,,,0.00,pywws,2013-11-02 04:41:00,
2013-11-02 00:46:00,46.6,42.9,29.69,West,270,0.0,0.0,87,0.00,,,0.00,pywws,2013-11-02 04:46:00,
2013-11-02 00:52:00,46.9,43.6,29.68,SE,135,0.0,1.6,88,0.00,,,0.00,pywws,2013-11-02 04:52:00,
2013-11-02 00:57:00,46.9,43.6,29.68,West,270,0.0,1.6,88,0.00,,,0.00,pywws,2013-11-02 04:57:00,
2013-11-02 01:03:00,46.9,43.6,29.68,North,0,0.0,0.7,88,0.00,,,0.00,pywws,2013-11-02 05:03:00,
2013-11-02 01:09:00,46.9,43.3,29.68,East,90,0.7,2.2,87,0.00,,,0.00,pywws,2013-11-02 05:09:00,
2013-11-02 01:14:00,46.9,43.3,29.68,North,0,0.0,0.0,87,0.00,,,0.00,pywws,2013-11-02 05:14:00,
2013-11-02 01:20:00,46.9,43.3,29.68,North,0,0.0,0.7,87,0.00,,,0.00,pywws,2013-11-02 05:20:00,
2013-11-02 01:25:00,46.9,43.3,29.68,West,270,0.0,0.7,87,0.00,,,0.00,pywws,2013-11-02 05:25:00,
2013-11-02 01:31:00,46.9,43.0,29.68,East,90,0.0,0.0,86,0.00,,,0.00,pywws,2013-11-02 05:31:00,
2013-11-02 01:36:00,46.9,43.0,29.68,East,90,0.0,0.0,86,0.00,,,0.00,pywws,2013-11-02 05:36:00,
2013-11-02 01:41:00,46.8,42.8,29.68,North,0,0.0,0.7,86,0.00,,,0.00,pywws,2013-11-02 05:41:00,
2013-11-02 01:46:00,46.9,43.0,29.68,North,0,0.0,0.7,86,0.00,,,0.00,pywws,2013-11-02 05:46:00,
2013-11-02 01:52:00,46.8,42.8,29.68,West,270,0.0,0.0,86,0.00,,,0.00,pywws,2013-11-02 05:52:00,
2013-11-02 01:57:00,46.6,42.6,29.68,SE,135,0.0,1.6,86,0.00,,,0.00,pywws,2013-11-02 05:57:00,
2013-11-02 02:03:00,46.8,42.8,29.67,South,180,0.0,0.0,86,0.00,,,0.00,pywws,2013-11-02 06:03:00,
2013-11-02 02:09:00,46.2,42.6,29.67,West,270,0.0,0.0,87,0.00,,,0.00,pywws,2013-11-02 06:09:00,
2013-11-02 02:14:00,46.2,42.9,29.67,SE,135,1.6,2.2,88,0.00,,,0.00,pywws,2013-11-02 06:14:00,
2013-11-02 02:20:00,46.4,43.0,29.67,South,180,0.0,1.6,88,0.00,,,0.00,pywws,2013-11-02 06:20:00,
2013-11-02 02:25:00,46.2,43.2,29.67,South,180,0.0,0.0,89,0.00,,,0.00,pywws,2013-11-02 06:25:00,
2013-11-02 02:31:00,46.4,43.0,29.67,East,90,0.0,1.6,88,0.00,,,0.00,pywws,2013-11-02 06:31:00,
2013-11-02 02:36:00,46.4,43.0,29.67,SE,135,0.0,1.6,88,0.00,,,0.00,pywws,2013-11-02 06:36:00,
2013-11-02 02:41:00,46.4,43.0,29.67,South,180,0.0,1.6,88,0.00,,,0.00,pywws,2013-11-02 06:41:00,
2013-11-02 02:46:00,46.4,43.0,29.67,South,180,0.0,0.0,88,0.00,,,0.00,pywws,2013-11-02 06:46:00,
2013-11-02 02:52:00,46.2,42.6,29.67,West,270,0.0,0.0,87,0.00,,,0.00,pywws,2013-11-02 06:52:00,
2013-11-02 02:57:00,46.2,42.6,29.67,South,180,0.0,1.6,87,0.00,,,0.00,pywws,2013-11-02 06:57:00,
2013-11-02 03:03:00,46.4,42.7,29.67,NW,315,0.7,3.8,87,0.00,,,0.00,pywws,2013-11-02 07:03:00,
2013-11-02 03:09:00,46.4,42.7,29.67,SE,135,1.6,3.8,87,0.00,,,0.00,pywws,2013-11-02 07:09:00,
2013-11-02 03:14:00,46.8,42.8,29.68,NW,315,0.7,3.1,86,0.00,,,0.00,pywws,2013-11-02 07:14:00,
2013-11-02 03:20:00,46.9,43.0,29.67,East,90,0.0,1.6,86,0.00,,,0.00,pywws,2013-11-02 07:20:00,
2013-11-02 03:25:00,46.9,42.7,29.67,North,0,0.7,1.6,85,0.00,,,0.00,pywws,2013-11-02 07:25:00,
2013-11-02 03:31:00,47.1,42.8,29.67,West,270,1.6,2.2,85,0.00,,,0.00,pywws,2013-11-02 07:31:00,
2013-11-02 03:36:00,47.1,42.8,29.67,West,270,2.2,6.0,85,0.00,,,0.00,pywws,2013-11-02 07:36:00,
2013-11-02 03:41:00,47.1,42.8,29.67,North,0,0.0,0.0,85,0.00,,,0.00,pywws,2013-11-02 07:41:00,
2013-11-02 03:46:00,47.1,42.5,29.67,South,180,0.0,2.2,84,0.00,,,0.00,pywws,2013-11-02 07:46:00,
2013-11-02 03:52:00,47.1,42.5,29.67,South,180,0.0,2.2,84,0.00,,,0.00,pywws,2013-11-02 07:52:00,
2013-11-02 03:57:00,47.3,42.7,29.67,North,0,0.7,3.1,84,0.00,,,0.00,pywws,2013-11-02 07:57:00,
2013-11-02 04:03:00,47.1,42.5,29.67,East,90,0.0,0.0,84,0.00,,,0.00,pywws,2013-11-02 08:03:00,
2013-11-02 04:09:00,47.3,42.4,29.67,SE,135,2.2,5.4,83,0.00,,,0.00,pywws,2013-11-02 08:09:00,
2013-11-02 04:14:00,47.3,42.4,29.67,North,0,0.0,0.7,83,0.00,,,0.00,pywws,2013-11-02 08:14:00,
2013-11-02 04:20:00,47.1,42.5,29.67,North,0,0.0,1.6,84,0.00,,,0.00,pywws,2013-11-02 08:20:00,
2013-11-02 04:25:00,47.1,42.5,29.67,South,180,0.7,1.6,84,0.00,,,0.00,pywws,2013-11-02 08:25:00,
2013-11-02 04:31:00,47.1,42.5,29.67,North,0,2.2,3.1,84,0.00,,,0.00,pywws,2013-11-02 08:31:00,
2013-11-02 04:36:00,47.3,42.7,29.67,South,180,0.7,2.2,84,0.00,,,0.00,pywws,2013-11-02 08:36:00,
2013-11-02 04:41:00,47.1,42.5,29.67,West,270,0.0,1.6,84,0.00,,,0.00,pywws,2013-11-02 08:41:00,
2013-11-02 04:46:00,47.1,42.5,29.67,South,180,0.0,0.7,84,0.00,,,0.00,pywws,2013-11-02 08:46:00,
2013-11-02 04:52:00,47.1,42.8,29.67,North,0,0.0,0.7,85,0.00,,,0.00,pywws,2013-11-02 08:52:00,
2013-11-02 04:57:00,46.9,42.7,29.67,SE,135,0.0,2.2,85,0.00,,,0.00,pywws,2013-11-02 08:57:00,
2013-11-02 05:03:00,46.8,42.5,29.67,West,270,0.0,0.0,85,0.00,,,0.00,pywws,2013-11-02 09:03:00,
2013-11-02 05:09:00,46.6,42.3,29.67,West,270,0.0,0.0,85,0.00,,,0.00,pywws,2013-11-02 09:09:00,
2013-11-02 05:14:00,46.8,42.8,29.67,East,90,0.0,2.2,86,0.00,,,0.00,pywws,2013-11-02 09:14:00,
2013-11-02 05:20:00,46.8,42.8,29.67,East,90,0.0,1.6,86,0.00,,,0.00,pywws,2013-11-02 09:20:00,
2013-11-02 05:25:00,46.6,42.6,29.67,SW,225,2.2,6.0,86,0.00,,,0.00,pywws,2013-11-02 09:25:00,
2013-11-02 05:31:00,46.6,42.6,29.67,South,180,1.6,3.1,86,0.00,,,0.00,pywws,2013-11-02 09:31:00,
2013-11-02 05:36:00,46.8,42.8,29.67,East,90,0.0,1.6,86,0.00,,,0.00,pywws,2013-11-02 09:36:00,
2013-11-02 05:41:00,46.8,42.8,29.67,SE,135,0.7,2.2,86,0.00,,,0.00,pywws,2013-11-02 09:41:00,
2013-11-02 05:46:00,46.8,43.1,29.67,NW,315,0.0,0.0,87,0.00,,,0.00,pywws,2013-11-02 09:46:00,
2013-11-02 05:52:00,46.8,43.1,29.67,South,180,0.0,1.6,87,0.00,,,0.00,pywws,2013-11-02 09:52:00,
2013-11-02 05:57:00,46.8,43.1,29.67,West,270,1.6,4.5,87,0.00,,,0.00,pywws,2013-11-02 09:57:00,
2013-11-02 06:03:00,46.8,43.1,29.67,NW,315,2.2,3.8,87,0.00,,,0.00,pywws,2013-11-02 10:03:00,
2013-11-02 06:09:00,46.9,43.3,29.67,North,0,1.6,2.2,87,0.00,,,0.00,pywws,2013-11-02 10:09:00,
2013-11-02 06:14:00,46.9,43.3,29.67,SW,225,0.7,2.2,87,0.00,,,0.00,pywws,2013-11-02 10:14:00,
2013-11-02 06:20:00,46.9,43.3,29.67,SE,135,0.7,4.5,87,0.00,,,0.00,pywws,2013-11-02 10:20:00,
2013-11-02 06:26:00,46.9,43.3,29.67,East,90,0.0,1.6,87,0.00,,,0.00,pywws,2013-11-02 10:26:00,
2013-11-02 06:31:00,46.9,43.3,29.68,South,180,0.7,1.6,87,0.00,,,0.00,pywws,2013-11-02 10:31:00,
2013-11-02 06:36:00,46.9,43.3,29.68,West,270,3.1,6.0,87,0.00,,,0.00,pywws,2013-11-02 10:36:00,
2013-11-02 06:41:00,46.9,43.3,29.68,North,0,0.0,0.7,87,0.00,,,0.00,pywws,2013-11-02 10:41:00,
2013-11-02 06:46:00,46.9,43.6,29.68,East,90,0.0,1.6,88,0.00,,,0.00,pywws,2013-11-02 10:46:00,
2013-11-02 06:52:00,46.9,43.6,29.68,West,270,5.4,7.6,88,0.00,,,0.00,pywws,2013-11-02 10:52:00,
2013-11-02 06:57:00,46.9,43.6,29.68,West,270,1.6,3.8,88,0.00,,,0.00,pywws,2013-11-02 10:57:00,
2013-11-02 07:03:00,46.9,43.9,29.68,SW,225,1.6,6.0,89,0.00,,,0.00,pywws,2013-11-02 11:03:00,
2013-11-02 07:09:00,46.4,43.9,29.69,North,0,1.6,4.5,91,0.00,,,0.00,pywws,2013-11-02 11:09:00,
2013-11-02 07:14:00,45.9,44.2,29.69,NE,45,0.7,3.1,94,0.01,,,0.01,pywws,2013-11-02 11:14:00,
2013-11-02 07:20:00,45.9,45.1,29.69,East,90,2.2,4.5,97,0.01,,,0.01,pywws,2013-11-02 11:20:00,
2013-11-02 07:25:00,45.5,44.7,29.69,South,180,0.0,2.2,97,0.01,,,0.01,pywws,2013-11-02 11:25:00,
2013-11-02 07:31:00,45.7,44.9,29.69,West,270,0.0,0.0,97,0.01,,,0.01,pywws,2013-11-02 11:31:00,
2013-11-02 07:36:00,45.5,44.7,29.69,South,180,0.0,1.6,97,0.01,,,0.01,pywws,2013-11-02 11:36:00,
2013-11-02 07:41:00,45.5,44.7,29.69,South,180,0.0,0.0,97,0.02,,,0.02,pywws,2013-11-02 11:41:00,
2013-11-02 07:46:00,45.5,44.7,29.69,West,270,0.0,1.6,97,0.02,,,0.02,pywws,2013-11-02 11:46:00,
2013-11-02 07:52:00,45.5,44.7,29.69,North,0,0.7,2.2,97,0.02,,,0.02,pywws,2013-11-02 11:52:00,
2013-11-02 07:57:00,45.3,44.5,29.69,SE,135,0.0,0.7,97,0.02,,,0.02,pywws,2013-11-02 11:57:00,
2013-11-02 08:03:00,45.5,44.7,29.69,West,270,0.7,1.6,97,0.02,,,0.02,pywws,2013-11-02 12:03:00,
2013-11-02 08:09:00,45.5,44.7,29.70,West,270,1.6,3.1,97,0.02,,,0.02,pywws,2013-11-02 12:09:00,
2013-11-02 08:14:00,45.5,44.7,29.69,South,180,0.7,1.6,97,0.02,,,0.04,pywws,2013-11-02 12:14:00,
2013-11-02 08:20:00,45.5,44.7,29.70,West,270,0.0,0.7,97,0.02,,,0.04,pywws,2013-11-02 12:20:00,
2013-11-02 08:25:00,45.7,44.9,29.69,South,180,0.0,0.7,97,0.02,,,0.04,pywws,2013-11-02 12:25:00,
2013-11-02 08:31:00,45.5,44.7,29.70,East,90,0.7,2.2,97,0.02,,,0.04,pywws,2013-11-02 12:31:00,
2013-11-02 08:36:00,45.5,44.7,29.70,West,270,0.0,0.0,97,0.02,,,0.04,pywws,2013-11-02 12:36:00,
2013-11-02 08:41:00,45.7,44.9,29.70,North,0,1.6,3.8,97,0.01,,,0.04,pywws,2013-11-02 12:41:00,
2013-11-02 08:46:00,45.7,44.9,29.70,SE,135,1.6,3.1,97,0.01,,,0.04,pywws,2013-11-02 12:46:00,
2013-11-02 08:52:00,45.5,44.7,29.71,North,0,0.7,1.6,97,0.01,,,0.04,pywws,2013-11-02 12:52:00,
2013-11-02 08:57:00,45.7,44.9,29.70,SW,225,0.7,2.2,97,0.01,,,0.04,pywws,2013-11-02 12:57:00,
2013-11-02 09:03:00,45.5,44.7,29.71,South,180,1.6,4.5,97,0.01,,,0.04,pywws,2013-11-02 13:03:00,
2013-11-02 09:09:00,45.7,44.9,29.71,West,270,1.6,3.8,97,0.01,,,0.04,pywws,2013-11-02 13:09:00,
2013-11-02 09:14:00,45.7,44.9,29.71,NW,315,1.6,5.4,97,0.00,,,0.04,pywws,2013-11-02 13:14:00,
2013-11-02 09:20:00,45.7,44.9,29.71,East,90,0.7,1.6,97,0.00,,,0.04,pywws,2013-11-02 13:20:00,
2013-11-02 09:25:00,45.9,45.1,29.71,East,90,0.7,2.2,97,0.00,,,0.04,pywws,2013-11-02 13:25:00,
2013-11-02 09:31:00,45.7,44.9,29.71,West,270,0.0,0.0,97,0.00,,,0.04,pywws,2013-11-02 13:31:00,
2013-11-02 09:36:00,46.0,45.2,29.71,NW,315,0.0,1.6,97,0.00,,,0.04,pywws,2013-11-02 13:36:00,
2013-11-02 09:41:00,46.0,45.2,29.72,West,270,2.2,5.4,97,0.00,,,0.04,pywws,2013-11-02 13:41:00,
2013-11-02 09:46:00,46.0,45.2,29.72,North,0,0.0,0.0,97,0.00,,,0.04,pywws,2013-11-02 13:46:00,
2013-11-02 09:52:00,46.0,45.2,29.72,North,0,0.7,2.2,97,0.01,,,0.05,pywws,2013-11-02 13:52:00,
2013-11-02 09:57:00,45.9,45.1,29.72,SE,135,0.7,2.2,97,0.04,,,0.07,pywws,2013-11-02 13:57:00,
2013-11-02 10:03:00,45.9,45.1,29.72,South,180,0.7,1.6,97,0.05,,,0.08,pywws,2013-11-02 14:03:00,
2013-11-02 10:09:00,45.5,44.7,29.72,NW,315,1.6,4.5,97,0.07,,,0.11,pywws,2013-11-02 14:09:00,
2013-11-02 10:14:00,45.7,44.9,29.72,SW,225,3.1,4.5,97,0.09,,,0.13,pywws,2013-11-02 14:14:00,
2013-11-02 10:20:00,45.7,44.9,29.72,SW,225,1.6,3.8,97,0.11,,,0.14,pywws,2013-11-02 14:20:00,
2013-11-02 10:26:00,45.7,44.9,29.72,East,90,0.0,0.7,97,0.12,,,0.15,pywws,2013-11-02 14:26:00,
2013-11-02 10:31:00,45.9,45.1,29.72,South,180,0.0,0.0,97,0.12,,,0.15,pywws,2013-11-02 14:31:00,
2013-11-02 10:36:00,45.9,45.1,29.72,West,270,0.0,0.0,97,0.13,,,0.17,pywws,2013-11-02 14:36:00,
2013-11-02 10:41:00,45.7,44.9,29.72,West,270,0.7,1.6,97,0.14,,,0.18,pywws,2013-11-02 14:41:00,
2013-11-02 10:46:00,45.9,45.1,29.73,West,270,0.0,0.0,97,0.14,,,0.18,pywws,2013-11-02 14:46:00,
2013-11-02 10:52:00,45.9,45.1,29.73,South,180,0.7,1.6,97,0.15,,,0.19,pywws,2013-11-02 14:52:00,
2013-11-02 10:57:00,46.0,45.2,29.73,South,180,0.0,0.7,97,0.14,,,0.20,pywws,2013-11-02 14:57:00,
2013-11-02 11:03:00,46.0,45.2,29.73,North,0,0.0,0.0,97,0.13,,,0.21,pywws,2013-11-02 15:03:00,
2013-11-02 11:09:00,45.9,45.1,29.74,North,0,0.0,0.7,97,0.09,,,0.21,pywws,2013-11-02 15:09:00,
2013-11-02 11:14:00,46.2,45.4,29.74,West,270,1.6,2.2,97,0.08,,,0.21,pywws,2013-11-02 15:14:00,
2013-11-02 11:20:00,46.2,45.4,29.74,North,0,1.6,2.2,97,0.08,,,0.22,pywws,2013-11-02 15:20:00,
2013-11-02 11:25:00,46.2,45.4,29.74,North,0,0.7,1.6,97,0.08,,,0.24,pywws,2013-11-02 15:25:00,
2013-11-02 11:31:00,46.0,45.2,29.74,West,270,0.7,2.2,97,0.09,,,0.25,pywws,2013-11-02 15:31:00,
2013-11-02 11:36:00,46.0,45.2,29.74,East,90,0.7,3.1,97,0.09,,,0.26,pywws,2013-11-02 15:36:00,
2013-11-02 11:41:00,46.0,45.2,29.74,North,0,1.6,2.2,97,0.11,,,0.28,pywws,2013-11-02 15:41:00,
2013-11-02 11:46:00,45.7,44.9,29.75,West,270,1.6,3.1,97,0.12,,,0.30,pywws,2013-11-02 15:46:00,
2013-11-02 11:52:00,45.9,45.1,29.75,NW,315,1.6,3.8,97,0.11,,,0.30,pywws,2013-11-02 15:52:00,
2013-11-02 11:57:00,45.9,45.1,29.75,West,270,0.0,0.7,97,0.11,,,0.31,pywws,2013-11-02 15:57:00,
2013-11-02 12:03:00,46.0,45.2,29.75,West,270,0.0,0.7,97,0.11,,,0.32,pywws,2013-11-02 16:03:00,
2013-11-02 12:09:00,46.2,45.4,29.75,North,0,0.7,2.2,97,0.12,,,0.33,pywws,2013-11-02 16:09:00,
2013-11-02 12:14:00,46.8,46.5,29.75,North,0,1.6,4.5,99,0.12,,,0.33,pywws,2013-11-02 16:14:00,
2013-11-02 12:20:00,46.2,45.4,29.75,West,270,1.6,3.1,97,0.12,,,0.34,pywws,2013-11-02 16:20:00,
2013-11-02 12:25:00,46.2,45.4,29.75,West,270,0.0,0.7,97,0.12,,,0.35,pywws,2013-11-02 16:25:00,
2013-11-02 12:31:00,46.6,46.3,29.75,North,0,0.7,3.8,99,0.11,,,0.35,pywws,2013-11-02 16:31:00,
2013-11-02 12:36:00,46.8,46.5,29.76,South,180,1.6,2.2,99,0.12,,,0.38,pywws,2013-11-02 16:36:00,
2013-11-02 12:41:00,46.2,45.4,29.75,North,0,0.0,1.6,97,0.09,,,0.38,pywws,2013-11-02 16:41:00,
2013-11-02 12:46:00,46.0,45.2,29.76,SW,225,0.0,1.6,97,0.09,,,0.39,pywws,2013-11-02 16:46:00,
2013-11-02 12:52:00,46.4,46.1,29.76,West,270,4.5,8.3,99,0.09,,,0.39,pywws,2013-11-02 16:52:00,
2013-11-02 12:57:00,46.6,46.3,29.75,South,180,0.0,1.6,99,0.08,,,0.39,pywws,2013-11-02 16:57:00,
2013-11-02 13:03:00,46.6,46.3,29.75,West,270,1.6,6.0,99,0.09,,,0.40,pywws,2013-11-02 17:03:00,
2013-11-02 13:09:00,46.6,46.3,29.76,North,0,2.2,3.8,99,0.07,,,0.40,pywws,2013-11-02 17:09:00,
2013-11-02 13:14:00,46.4,46.1,29.76,NW,315,2.2,4.5,99,0.08,,,0.41,pywws,2013-11-02 17:14:00,
2013-11-02 13:20:00,46.8,46.5,29.76,SW,225,0.0,0.7,99,0.07,,,0.41,pywws,2013-11-02 17:20:00,
2013-11-02 13:25:00,46.6,46.3,29.76,North,0,0.0,0.7,99,0.07,,,0.43,pywws,2013-11-02 17:25:00,
2013-11-02 13:31:00,46.9,46.7,29.76,North,0,0.7,1.6,99,0.07,,,0.43,pywws,2013-11-02 17:31:00,
2013-11-02 13:36:00,46.8,46.5,29.76,NW,315,1.6,2.2,99,0.06,,,0.44,pywws,2013-11-02 17:36:00,
2013-11-02 13:41:00,46.9,46.7,29.76,East,90,0.7,1.6,99,0.06,,,0.44,pywws,2013-11-02 17:41:00,
2013-11-02 13:46:00,46.4,46.1,29.76,West,270,1.6,4.5,99,0.05,,,0.44,pywws,2013-11-02 17:46:00,
2013-11-02 13:52:00,46.6,46.3,29.76,SE,135,0.7,3.1,99,0.06,,,0.45,pywws,2013-11-02 17:52:00,
2013-11-02 13:57:00,46.4,46.1,29.76,East,90,0.0,1.6,99,0.07,,,0.46,pywws,2013-11-02 17:57:00,
2013-11-02 14:03:00,46.2,45.4,29.76,NW,315,2.2,3.8,97,0.08,,,0.47,pywws,2013-11-02 18:03:00,
2013-11-02 14:09:00,46.0,45.2,29.76,NW,315,3.1,4.5,97,0.09,,,0.50,pywws,2013-11-02 18:09:00,
2013-11-02 14:14:00,45.7,44.9,29.76,SW,225,2.2,4.5,97,0.12,,,0.53,pywws,2013-11-02 18:14:00,
2013-11-02 14:20:00,45.7,44.9,29.77,West,270,0.7,1.6,97,0.15,,,0.57,pywws,2013-11-02 18:20:00,
2013-11-02 14:25:00,45.9,45.1,29.76,West,270,1.6,3.1,97,0.15,,,0.58,pywws,2013-11-02 18:25:00,
2013-11-02 14:31:00,45.9,45.1,29.77,West,270,0.0,0.7,97,0.17,,,0.59,pywws,2013-11-02 18:31:00,
2013-11-02 14:36:00,45.9,45.1,29.77,South,180,0.0,0.0,97,0.18,,,0.61,pywws,2013-11-02 18:36:00,
2013-11-02 14:41:00,46.0,45.2,29.77,SW,225,1.6,3.8,97,0.18,,,0.61,pywws,2013-11-02 18:41:00,
2013-11-02 14:46:00,46.2,45.4,29.77,North,0,2.2,3.1,97,0.18,,,0.61,pywws,2013-11-02 18:46:00,
2013-11-02 14:52:00,45.9,45.1,29.77,West,270,1.6,3.1,97,0.17,,,0.61,pywws,2013-11-02 18:52:00,
2013-11-02 14:57:00,46.0,45.2,29.78,NW,315,1.6,3.1,97,0.15,,,0.61,pywws,2013-11-02 18:57:00,
2013-11-02 15:03:00,46.0,45.2,29.78,West,270,1.6,3.1,97,0.17,,,0.63,pywws,2013-11-02 19:03:00,
2013-11-02 15:09:00,46.0,45.2,29.78,South,180,0.0,0.7,97,0.12,,,0.63,pywws,2013-11-02 19:09:00,
2013-11-02 15:14:00,46.2,45.4,29.78,West,270,0.0,0.7,97,0.09,,,0.63,pywws,2013-11-02 19:14:00,
2013-11-02 15:20:00,46.0,45.2,29.78,West,270,0.0,0.0,97,0.06,,,0.63,pywws,2013-11-02 19:20:00,
2013-11-02 15:25:00,45.9,45.1,29.79,West,270,1.6,3.1,97,0.06,,,0.64,pywws,2013-11-02 19:25:00,
2013-11-02 15:31:00,45.7,44.9,29.79,NE,45,1.6,4.5,97,0.06,,,0.65,pywws,2013-11-02 19:31:00,
2013-11-02 15:36:00,45.7,44.9,29.80,West,270,3.1,4.5,97,0.05,,,0.66,pywws,2013-11-02 19:36:00,
2013-11-02 15:41:00,45.7,44.9,29.80,West,270,0.7,3.1,97,0.05,,,0.66,pywws,2013-11-02 19:41:00,
2013-11-02 15:46:00,45.7,44.9,29.80,West,270,1.6,3.8,97,0.05,,,0.66,pywws,2013-11-02 19:46:00,
2013-11-02 15:52:00,45.7,44.9,29.80,West,270,0.0,0.7,97,0.05,,,0.66,pywws,2013-11-02 19:52:00,
2013-11-02 15:57:00,45.7,44.9,29.80,West,270,1.6,3.1,97,0.05,,,0.66,pywws,2013-11-02 19:57:00,
2013-11-02 16:03:00,45.7,44.9,29.81,North,0,1.6,3.8,97,0.04,,,0.66,pywws,2013-11-02 20:03:00,
2013-11-02 16:09:00,45.9,45.1,29.81,East,90,2.2,3.8,97,0.05,,,0.67,pywws,2013-11-02 20:09:00,
2013-11-02 16:14:00,45.9,45.1,29.81,West,270,0.0,0.7,97,0.05,,,0.67,pywws,2013-11-02 20:14:00,
2013-11-02 16:20:00,45.7,44.9,29.82,SW,225,0.7,1.6,97,0.05,,,0.67,pywws,2013-11-02 20:20:00,
2013-11-02 16:25:00,45.7,44.9,29.82,North,0,0.0,1.6,97,0.04,,,0.67,pywws,2013-11-02 20:25:00,
2013-11-02 16:31:00,45.7,44.9,29.82,West,270,0.0,1.6,97,0.02,,,0.67,pywws,2013-11-02 20:31:00,
2013-11-02 16:36:00,45.7,44.9,29.82,North,0,2.2,3.1,97,0.01,,,0.67,pywws,2013-11-02 20:36:00,
2013-11-02 16:41:00,45.7,44.9,29.82,North,0,0.0,2.2,97,0.02,,,0.69,pywws,2013-11-02 20:41:00,
2013-11-02 16:46:00,45.7,44.9,29.82,NW,315,1.6,3.8,97,0.02,,,0.69,pywws,2013-11-02 20:46:00,
2013-11-02 16:52:00,45.9,45.1,29.83,NW,315,4.5,6.9,97,0.02,,,0.69,pywws,2013-11-02 20:52:00,
2013-11-02 16:57:00,45.9,45.1,29.83,East,90,0.7,2.2,97,0.02,,,0.69,pywws,2013-11-02 20:57:00,
2013-11-02 17:03:00,45.7,44.9,29.83,West,270,0.7,1.6,97,0.02,,,0.69,pywws,2013-11-02 21:03:00,
2013-11-02 17:09:00,45.9,45.1,29.83,North,0,0.0,3.1,97,0.01,,,0.69,pywws,2013-11-02 21:09:00,
2013-11-02 17:14:00,46.0,45.2,29.83,North,0,0.0,1.6,97,0.01,,,0.69,pywws,2013-11-02 21:14:00,
2013-11-02 17:20:00,46.0,45.2,29.84,North,0,1.6,4.5,97,0.01,,,0.69,pywws,2013-11-02 21:20:00,
2013-11-02 17:25:00,45.7,44.9,29.84,NW,315,0.0,1.6,97,0.02,,,0.70,pywws,2013-11-02 21:25:00,
2013-11-02 17:31:00,46.0,45.2,29.84,NE,45,1.6,3.8,97,0.02,,,0.70,pywws,2013-11-02 21:31:00,
2013-11-02 17:36:00,45.3,44.5,29.85,North,0,2.2,3.1,97,0.06,,,0.73,pywws,2013-11-02 21:36:00,
2013-11-02 17:41:00,44.6,43.8,29.85,NW,315,0.7,2.2,97,0.06,,,0.74,pywws,2013-11-02 21:41:00,
2013-11-02 17:46:00,44.1,43.5,29.85,West,270,1.6,3.1,98,0.07,,,0.76,pywws,2013-11-02 21:46:00,
2013-11-02 17:52:00,44.2,43.7,29.85,West,270,0.0,0.0,98,0.07,,,0.76,pywws,2013-11-02 21:52:00,
2013-11-02 17:57:00,44.6,43.8,29.85,SE,135,2.2,3.8,97,0.11,,,0.79,pywws,2013-11-02 21:57:00,
2013-11-02 18:03:00,44.8,44.0,29.86,NW,315,0.7,3.1,97,0.11,,,0.79,pywws,2013-11-02 22:03:00,
2013-11-02 18:09:00,45.0,44.2,29.86,West,270,1.6,3.8,97,0.11,,,0.79,pywws,2013-11-02 22:09:00,
2013-11-02 18:14:00,45.1,44.3,29.86,East,90,0.7,2.2,97,0.11,,,0.79,pywws,2013-11-02 22:14:00,
2013-11-02 18:20:00,45.1,44.3,29.87,North,0,1.6,3.1,97,0.11,,,0.79,pywws,2013-11-02 22:20:00,
2013-11-02 18:25:00,45.0,44.2,29.87,North,0,0.7,1.6,97,0.09,,,0.79,pywws,2013-11-02 22:25:00,
2013-11-02 18:31:00,45.1,44.3,29.87,North,0,0.0,0.0,97,0.09,,,0.79,pywws,2013-11-02 22:31:00,
2013-11-02 18:36:00,45.1,44.3,29.87,SW,225,0.7,1.6,97,0.06,,,0.79,pywws,2013-11-02 22:36:00,
2013-11-02 18:41:00,45.1,44.3,29.88,North,0,0.0,1.6,97,0.05,,,0.79,pywws,2013-11-02 22:41:00,
2013-11-02 18:47:00,45.1,44.3,29.88,North,0,0.0,0.0,97,0.04,,,0.79,pywws,2013-11-02 22:47:00,
2013-11-02 18:53:00,45.3,44.5,29.88,North,0,0.0,0.0,97,0.05,,,0.80,pywws,2013-11-02 22:53:00,
2013-11-02 18:58:00,45.0,44.2,29.89,South,180,1.6,3.1,97,0.02,,,0.81,pywws,2013-11-02 22:58:00,
2013-11-02 19:04:00,44.8,44.0,29.89,North,0,0.0,0.7,97,0.02,,,0.81,pywws,2013-11-02 23:04:00,
2013-11-02 19:09:00,44.8,44.0,29.89,North,0,0.7,1.6,97,0.04,,,0.83,pywws,2013-11-02 23:09:00,
2013-11-02 19:15:00,44.6,43.8,29.89,North,0,0.0,1.6,97,0.04,,,0.83,pywws,2013-11-02 23:15:00,
2013-11-02 19:21:00,44.6,43.8,29.90,North,0,3.1,4.5,97,0.04,,,0.83,pywws,2013-11-02 23:21:00,
2013-11-02 19:26:00,44.2,43.7,29.90,South,180,1.6,3.1,98,0.04,,,0.83,pywws,2013-11-02 23:26:00,
2013-11-02 19:32:00,44.1,43.5,29.91,West,270,2.2,3.8,98,0.04,,,0.83,pywws,2013-11-02 23:32:00,
2013-11-02 19:37:00,44.2,43.7,29.91,North,0,0.7,3.1,98,0.04,,,0.83,pywws,2013-11-02 23:37:00,
2013-11-02 19:43:00,44.1,43.5,29.91,West,270,1.6,2.2,98,0.04,,,0.83,pywws,2013-11-02 23:43:00,
2013-11-02 19:49:00,44.2,43.7,29.92,NE,45,0.7,2.2,98,0.02,,,0.83,pywws,2013-11-02 23:49:00,
2013-11-02 19:54:00,44.2,43.7,29.92,North,0,0.7,2.2,98,0.01,,,0.83,pywws,2013-11-02 23:54:00,
2013-11-02 20:00:00,44.2,43.7,29.92,SE,135,1.6,3.8,98,0.01,,,0.83,pywws,2013-11-03 00:00:00,
2013-11-02 20:05:00,44.6,43.8,29.93,East,90,0.0,1.6,97,0.00,,,0.83,pywws,2013-11-03 00:05:00,
2013-11-02 20:11:00,44.6,43.5,29.93,South,180,0.0,1.6,96,0.00,,,0.83,pywws,2013-11-03 00:11:00,
2013-11-02 20:16:00,44.8,43.4,29.93,North,0,1.6,2.2,95,0.00,,,0.83,pywws,2013-11-03 00:16:00,
2013-11-02 20:21:00,44.6,43.0,29.93,West,270,2.2,3.1,94,0.00,,,0.83,pywws,2013-11-03 00:21:00,
2013-11-02 20:26:00,44.6,43.0,29.93,North,0,1.6,3.1,94,0.00,,,0.83,pywws,2013-11-03 00:26:00,
2013-11-02 20:32:00,44.6,43.0,29.94,North,0,0.0,2.2,94,0.00,,,0.83,pywws,2013-11-03 00:32:00,
2013-11-02 20:37:00,44.4,43.1,29.94,North,0,2.2,3.8,95,0.00,,,0.83,pywws,2013-11-03 00:37:00,
2013-11-02 20:43:00,44.6,42.7,29.94,North,0,0.0,0.7,93,0.00,,,0.83,pywws,2013-11-03 00:43:00,
2013-11-02 20:49:00,44.2,42.6,29.94,NE,45,1.6,3.1,94,0.01,,,0.84,pywws,2013-11-03 00:49:00,
2013-11-02 20:54:00,44.4,42.8,29.94,North,0,0.7,2.2,94,0.01,,,0.84,pywws,2013-11-03 00:54:00,
2013-11-02 21:00:00,44.4,42.8,29.95,North,0,0.7,1.6,94,0.01,,,0.84,pywws,2013-11-03 01:00:00,
2013-11-02 21:05:00,44.4,42.8,29.95,North,0,0.7,2.2,94,0.01,,,0.84,pywws,2013-11-03 01:05:00,
2013-11-02 21:11:00,44.4,42.5,29.95,North,0,1.6,3.1,93,0.01,,,0.84,pywws,2013-11-03 01:11:00,
2013-11-02 21:16:00,44.6,42.4,29.95,West,270,1.6,3.1,92,0.01,,,0.84,pywws,2013-11-03 01:16:00,
2013-11-02 21:21:00,44.4,42.5,29.95,North,0,0.7,2.2,93,0.01,,,0.84,pywws,2013-11-03 01:21:00,
2013-11-02 21:26:00,44.1,42.4,29.96,South,180,0.7,3.1,94,0.01,,,0.84,pywws,2013-11-03 01:26:00,
2013-11-02 21:32:00,44.1,42.7,29.96,North,0,1.6,2.2,95,0.02,,,0.85,pywws,2013-11-03 01:32:00,
2013-11-02 21:37:00,43.7,42.6,29.96,West,270,0.0,1.6,96,0.04,,,0.86,pywws,2013-11-03 01:37:00,
2013-11-02 21:43:00,43.5,42.7,29.96,North,0,0.0,0.7,97,0.04,,,0.86,pywws,2013-11-03 01:43:00,
2013-11-02 21:49:00,43.3,42.8,29.97,North,0,0.0,1.6,98,0.02,,,0.86,pywws,2013-11-03 01:49:00,
2013-11-02 21:54:00,43.2,42.6,29.97,North,0,0.0,0.7,98,0.02,,,0.86,pywws,2013-11-03 01:54:00,
2013-11-02 22:00:00,43.2,42.6,29.98,North,0,0.7,2.2,98,0.02,,,0.86,pywws,2013-11-03 02:00:00,
2013-11-02 22:06:00,43.2,42.6,29.98,North,0,0.7,2.2,98,0.02,,,0.86,pywws,2013-11-03 02:06:00,
2013-11-02 22:11:00,43.5,42.2,29.98,West,270,0.7,1.6,95,0.02,,,0.86,pywws,2013-11-03 02:11:00,
2013-11-02 22:16:00,43.3,41.7,29.98,West,270,1.6,2.2,94,0.02,,,0.86,pywws,2013-11-03 02:16:00,
2013-11-02 22:21:00,43.3,41.7,29.98,North,0,0.0,1.6,94,0.02,,,0.86,pywws,2013-11-03 02:21:00,
2013-11-02 22:26:00,43.3,41.7,29.98,North,0,0.7,2.2,94,0.02,,,0.86,pywws,2013-11-03 02:26:00,
2013-11-02 22:32:00,43.3,41.7,29.99,North,0,0.7,2.2,94,0.01,,,0.86,pywws,2013-11-03 02:32:00,
2013-11-02 22:37:00,43.3,41.5,29.99,North,0,0.7,2.2,93,0.00,,,0.86,pywws,2013-11-03 02:37:00,
2013-11-02 22:43:00,43.5,41.4,29.99,North,0,0.0,1.6,92,0.00,,,0.86,pywws,2013-11-03 02:43:00,
2013-11-02 22:49:00,43.3,41.2,29.99,North,0,0.0,1.6,92,0.00,,,0.86,pywws,2013-11-03 02:49:00,
2013-11-02 22:54:00,43.3,41.5,30.00,North,0,0.7,2.2,93,0.00,,,0.86,pywws,2013-11-03 02:54:00,
2013-11-02 23:00:00,43.7,41.0,30.01,North,0,0.0,0.0,90,0.00,,,0.86,pywws,2013-11-03 03:00:00,
2013-11-02 23:05:00,43.3,41.2,30.01,North,0,0.7,2.2,92,0.00,,,0.86,pywws,2013-11-03 03:05:00,
2013-11-02 23:11:00,43.3,40.9,30.01,North,0,0.7,2.2,91,0.00,,,0.86,pywws,2013-11-03 03:11:00,
2013-11-02 23:16:00,43.5,40.5,30.01,North,0,0.7,2.2,89,0.00,,,0.86,pywws,2013-11-03 03:16:00,
2013-11-02 23:21:00,43.3,40.3,30.01,North,0,0.0,0.0,89,0.00,,,0.86,pywws,2013-11-03 03:21:00,
2013-11-02 23:26:00,43.2,40.4,30.01,North,0,0.0,0.0,90,0.00,,,0.86,pywws,2013-11-03 03:26:00,
2013-11-02 23:32:00,43.3,40.3,30.01,North,0,0.0,0.7,89,0.00,,,0.86,pywws,2013-11-03 03:32:00,
2013-11-02 23:37:00,43.3,40.6,30.01,North,0,0.0,0.0,90,0.00,,,0.86,pywws,2013-11-03 03:37:00,
2013-11-02 23:43:00,43.0,40.5,30.01,East,90,0.0,0.0,91,0.00,,,0.86,pywws,2013-11-03 03:43:00,
2013-11-02 23:49:00,43.3,40.6,30.01,North,0,0.0,0.7,90,0.00,,,0.86,pywws,2013-11-03 03:49:00,
2013-11-02 23:54:00,43.5,40.5,30.02,North,0,0.0,0.7,89,0.00,,,0.86,pywws,2013-11-03 03:54:00,